Temp
15 15 15 15 15 16 16 16 17 17 17 17 18 18 19 19 19 20 22 22 22 22 22 22 21 21 21 21 21 20 18 19 21 22 21 22 21 21 21 20 21 20 20 20 19
15 15 15 15 15 16 16 16 17 17 17 17 18 18 18 19 20 21 22 22 22 22 22 21 21 21 21 22 20 20 19 20 20 20 20 21 22 22 21 21 19 19 20 19 18
15 15 15 15 16 16 16 16 16 17 17 17 17 18 18 19 20 21 22 21 22 22 22 21 21 21 21 21 21 19 20 19 20 20 19 19 22 22 21 20 20 19 19 19 18
15 15 15 16 16 16 16 16 16 17 17 17 17 18 18 19 20 21 22 22 21 21 22 22 21 21 21 21 21 21 20 19 17 17 21 20 21 21 22 22 22 21 20 19 19
15 15 15 16 16 16 16 16 17 17 17 17 17 18 18 19 21 21 21 22 22 22 21 22 21 21 21 21 21 20 20 19 17 18 20 20 21 21 22 23 22 20 20 19 19
15 15 16 16 16 17 17 17 17 17 17 17 17 18 18 18 21 21 21 21 21 21 21 21 22 22 22 21 21 21 20 19 18 19 19 19 21 21 22 22 21 20 20 19 19
15 16 16 16 16 17 17 18 18 18 18 17 17 18 18 21 21 21 21 21 21 20 21 21 21 22 22 21 22 19 19 19 18 19 19 18 20 20 22 21 20 20 20 19 20
15 16 16 16 17 17 18 18 18 18 18 18 17 18 20 21 22 21 21 21 21 21 20 21 21 21 22 22 22 21 20 19 18 17 17 19 19 20 21 21 20 19 19 19 19
16 16 16 16 17 18 18 19 19 19 18 18 18 18 21 21 21 22 22 21 21 21 21 21 21 21 22 19 18 17 18 19 18 17 18 18 19 18 20 21 20 19 19 19 19
15 16 16 17 18 18 19 19 19 19 18 18 18 19 22 21 21 22 22 21 21 21 21 21 21 17 15 16 18 19 17 18 18 17 17 16 17 17 19 20 21 20 20 19 19
15 16 17 17 18 19 19 19 18 18 17 19 19 19 21 22 22 22 22 22 21 21 18 20 17 17 19 19 19 19 19 17 18 17 17 16 16 16 16 19 20 21 20 20 20
15 16 17 17 18 19 19 18 17 17 16 20 20 20 22 22 22 22 22 22 21 19 19 17 18 19 20 20 21 18 17 17 17 17 17 16 16 16 16 16 18 20 20 20 20
15 16 17 18 19 19 19 18 18 17 16 20 21 21 22 22 22 23 22 22 21 20 19 17 20 20 21 20 20 18 18 16 18 17 16 16 17 16 16 16 18 18 20 21 21
15 16 17 18 19 19 19 19 19 19 14 19 21 22 23 22 22 23 23 23 21 20 18 20 20 21 20 20 19 18 18 18 16 17 17 17 17 16 17 16 16 18 20 20 21
15 16 16 18 18 19 19 19 19 19 17 22 22 23 23 23 23 23 23 23 20 21 19 19 21 21 20 20 19 19 18 17 17 16 16 16 17 18 16 16 17 18 19 20 20
15 15 16 17 18 19 19 19 19 15 19 20 23 22 22 22 22 22 23 23 22 20 20 19 21 21 20 20 20 18 17 15 15 15 16 17 17 16 16 16 18 19 19 20 20
15 16 17 17 19 19 19 20 15 16 20 21 21 20 21 21 21 21 21 20 18 19 19 19 20 19 19 17 18 16 14 14 16 15 17 16 17 18 18 17 17 18 19 19 20
16 17 18 19 19 19 19 15 18 20 19 20 20 20 21 19 20 20 19 18 20 19 16 17 18 18 19 17 16 16 16 14 18 16 17 17 17 18 20 20 19 20 19 19 19
16 18 19 19 19 19 19 14 16 18 20 20 20 18 18 19 20 18 18 17 20 19 18 18 19 21 19 19 19 17 17 16 15 15 16 17 18 19 19 18 18 18 18 19 19
17 18 19 19 19 19 15 14 16 17 20 20 20 20 19 18 19 18 18 20 20 20 19 20 18 20 21 20 20 18 18 18 14 17 18 17 17 18 18 18 18 18 18 18 19
17 18 18 18 19 19 14 13 16 20 20 20 19 19 19 19 18 17 18 19 19 19 18 18 17 19 20 20 18 18 18 17 15 15 16 17 18 18 19 19 18 20 21 21 21
16 13 17 18 16 10 12 14 19 20 21 21 19 20 19 17 17 17 18 18 19 19 19 18 15 17 19 19 18 18 18 17 16 18 15 16 18 17 19 20 20 20 20 19 19
14 15 16 17 13 11 13 17 19 20 20 20 20 19 17 16 18 16 18 19 19 18 19 17 15 16 19 19 19 18 18 17 13 13 15 18 18 19 18 18 20 19 19 19 19
13 13 15 15 15 14 16 17 18 20 20 20 19 18 17 16 14 17 17 17 17 18 19 18 13 17 17 17 17 17 16 16 15 15 16 17 18 17 18 18 16 18 18 18 18
12 11 12 12 13 14 16 17 18 19 21 20 19 18 16 16 16 16 15 15 17 17 18 15 16 15 17 17 17 16 16 16 17 15 18 17 16 16 15 16 17 17 18 18 18
12 11 12 12 13 14 13 16 18 18 19 19 19 18 16 15 15 15 16 15 17 16 16 12 16 16 17 17 18 17 16 16 15 15 15 14 16 16 15 16 16 16 17 17 18
11 11 11 12 12 13 14 17 17 17 20 20 19 17 16 17 18 18 18 16 16 16 15 14 13 15 15 15 17 16 17 16 16 16 15 15 15 16 14 15 15 16 17 17 16
Height
1519 1517 1516 1514 1512 1510 1509 1507 1506 1505 1503 1502 1501 1501 1501 1501 1500 1499 1499 1501 1502 1502 1504 1505 1507 1509 1511 1512 1513 1514 1522 1526 1522 1520 1523 1523 1526 1530 1530 1533 1535 1536 1538 1542 1546
1520 1518 1516 1514 1512 1510 1509 1507 1505 1504 1503 1502 1501 1500 1499 1499 1498 1497 1499 1499 1500 1502 1505 1506 1507 1509 1511 1512 1513 1514 1520 1521 1521 1521 1523 1523 1525 1527 1530 1534 1537 1536 1541 1545 1548
1521 1519 1517 1515 1513 1511 1509 1507 1505 1504 1503 1501 1501 1500 1499 1498 1497 1497 1497 1498 1500 1502 1503 1505 1507 1509 1511 1512 1512 1514 1518 1520 1525 1524 1526 1526 1526 1525 1528 1535 1534 1535 1540 1545 1548
1522 1520 1518 1515 1513 1511 1510 1508 1506 1504 1503 1502 1500 1499 1498 1498 1501 1497 1497 1497 1499 1501 1503 1505 1507 1510 1512 1513 1512 1515 1516 1519 1525 1526 1529 1527 1526 1525 1526 1528 1533 1535 1539 1544 1549
1522 1520 1518 1516 1514 1512 1510 1508 1507 1505 1503 1502 1500 1499 1498 1498 1497 1497 1497 1498 1500 1502 1503 1505 1508 1511 1513 1513 1512 1513 1516 1519 1521 1526 1527 1527 1526 1527 1529 1530 1535 1539 1542 1546 1550
1522 1520 1518 1515 1513 1512 1510 1508 1507 1505 1503 1502 1500 1499 1498 1498 1497 1498 1498 1499 1501 1502 1504 1506 1509 1511 1512 1512 1514 1512 1515 1519 1524 1525 1526 1528 1526 1528 1531 1532 1536 1539 1543 1547 1550
1522 1520 1517 1515 1513 1511 1510 1508 1506 1505 1503 1502 1500 1498 1497 1497 1497 1498 1499 1500 1501 1503 1505 1507 1509 1511 1513 1512 1512 1512 1517 1520 1526 1525 1528 1529 1527 1526 1530 1534 1535 1540 1543 1547 1550
1520 1519 1517 1515 1513 1511 1509 1507 1505 1503 1502 1501 1499 1498 1496 1497 1497 1498 1499 1500 1501 1502 1504 1507 1509 1511 1512 1512 1512 1514 1517 1526 1529 1526 1530 1533 1535 1524 1529 1533 1536 1540 1542 1547 1550
1519 1518 1516 1514 1512 1510 1508 1506 1503 1502 1501 1500 1499 1498 1497 1498 1498 1497 1498 1500 1502 1503 1504 1507 1509 1511 1511 1515 1523 1522 1531 1527 1530 1529 1530 1533 1533 1530 1528 1530 1535 1538 1542 1544 1550
1519 1516 1514 1512 1510 1509 1507 1505 1501 1500 1500 1499 1499 1500 1497 1498 1497 1496 1496 1499 1502 1503 1506 1508 1509 1513 1516 1522 1538 1527 1533 1529 1530 1532 1532 1535 1537 1535 1533 1535 1533 1536 1540 1543 1547
1518 1515 1513 1511 1509 1508 1508 1504 1505 1502 1498 1498 1498 1498 1496 1497 1496 1496 1496 1499 1502 1504 1507 1508 1515 1521 1518 1516 1516 1518 1523 1530 1526 1526 1526 1535 1537 1531 1533 1534 1536 1537 1540 1541 1543
1516 1514 1512 1510 1508 1508 1508 1507 1508 1510 1501 1495 1494 1494 1494 1495 1496 1496 1498 1500 1501 1506 1506 1514 1519 1511 1512 1513 1514 1520 1528 1532 1529 1528 1530 1533 1531 1533 1533 1534 1535 1537 1538 1540 1543
1515 1512 1510 1509 1508 1509 1508 1509 1508 1505 1504 1495 1494 1493 1493 1495 1495 1495 1498 1499 1500 1505 1508 1517 1512 1508 1510 1514 1516 1522 1524 1530 1526 1529 1531 1533 1535 1531 1532 1532 1534 1536 1536 1538 1538
1513 1511 1509 1508 1510 1508 1509 1508 1506 1503 1513 1500 1494 1493 1493 1493 1494 1494 1496 1499 1501 1504 1508 1509 1507 1507 1511 1514 1514 1523 1513 1517 1527 1530 1540 1532 1544 1533 1529 1529 1533 1534 1532 1533 1535
1511 1509 1508 1507 1507 1508 1509 1508 1505 1505 1534 1496 1493 1492 1492 1494 1495 1495 1496 1497 1502 1503 1506 1512 1506 1507 1511 1510 1508 1516 1510 1521 1527 1534 1535 1537 1540 1527 1526 1532 1527 1529 1527 1527 1531
1509 1507 1506 1506 1505 1507 1507 1507 1507 1520 1523 1499 1491 1492 1492 1492 1493 1494 1495 1498 1499 1501 1504 1504 1500 1501 1502 1502 1502 1509 1519 1526 1532 1540 1547 1529 1533 1532 1526 1514 1514 1520 1522 1522 1525
1506 1504 1502 1503 1504 1505 1506 1507 1521 1529 1501 1502 1497 1493 1492 1495 1494 1494 1497 1502 1509 1516 1515 1505 1500 1499 1500 1508 1509 1512 1527 1554 1552 1554 1544 1527 1533 1513 1504 1503 1503 1509 1515 1519 1521
1502 1500 1499 1500 1502 1504 1505 1509 1521 1506 1506 1496 1497 1495 1498 1497 1496 1496 1501 1509 1502 1507 1519 1522 1521 1502 1497 1502 1510 1516 1519 1544 1547 1552 1539 1526 1529 1504 1487 1487 1493 1502 1511 1515 1518
1498 1496 1495 1497 1500 1503 1506 1522 1516 1506 1500 1499 1498 1506 1506 1499 1498 1502 1506 1509 1503 1503 1516 1518 1513 1492 1494 1494 1498 1514 1521 1514 1535 1535 1537 1524 1506 1488 1488 1490 1493 1499 1502 1509 1514
1495 1493 1493 1496 1499 1502 1506 1514 1506 1499 1497 1497 1506 1503 1510 1506 1504 1506 1508 1502 1503 1501 1500 1505 1518 1494 1492 1493 1496 1502 1502 1522 1534 1543 1538 1523 1514 1504 1490 1490 1493 1495 1498 1504 1509
1494 1492 1493 1495 1499 1502 1512 1510 1500 1495 1495 1498 1502 1504 1504 1504 1506 1510 1508 1503 1501 1501 1502 1502 1512 1503 1494 1496 1502 1505 1509 1513 1519 1526 1535 1533 1511 1479 1477 1477 1483 1479 1485 1493 1502
1493 1494 1493 1495 1500 1504 1507 1501 1496 1494 1493 1494 1495 1497 1501 1505 1507 1510 1507 1503 1500 1501 1503 1503 1512 1517 1501 1491 1491 1493 1497 1502 1523 1519 1524 1523 1510 1473 1471 1474 1477 1481 1485 1488 1494
1494 1493 1493 1495 1503 1505 1500 1498 1495 1493 1493 1493 1495 1496 1498 1506 1509 1508 1505 1500 1500 1500 1501 1500 1512 1522 1505 1497 1493 1499 1497 1499 1508 1513 1521 1520 1506 1478 1474 1473 1475 1478 1483 1486 1491
1496 1495 1494 1495 1495 1497 1498 1497 1496 1491 1490 1490 1492 1494 1499 1505 1507 1505 1505 1500 1500 1500 1499 1498 1511 1509 1524 1513 1505 1507 1502 1499 1504 1517 1515 1507 1499 1489 1483 1480 1479 1479 1481 1486 1492
1497 1495 1494 1496 1494 1493 1494 1493 1493 1494 1488 1488 1491 1491 1497 1507 1507 1507 1505 1503 1498 1498 1498 1500 1511 1509 1507 1506 1506 1517 1505 1501 1500 1509 1506 1501 1500 1495 1488 1484 1484 1482 1483 1488 1493
1497 1497 1494 1492 1491 1492 1492 1490 1488 1488 1487 1487 1490 1490 1494 1503 1502 1506 1502 1503 1502 1500 1499 1502 1507 1506 1507 1503 1503 1507 1502 1502 1503 1504 1504 1502 1497 1492 1489 1485 1486 1484 1488 1491 1495
1495 1497 1496 1490 1490 1491 1488 1484 1484 1486 1481 1479 1482 1489 1494 1493 1493 1495 1497 1498 1498 1500 1502 1503 1509 1512 1515 1510 1500 1512 1507 1507 1504 1503 1505 1504 1498 1493 1493 1491 1489 1488 1490 1495 1498
Wind_Speed
11 12 12 12 12 11 9 7 6 6 5 6 7 7 7 8 9 10 10 5 9 7 9 9 11 11 7 2 1 2 3 2 2 5 3 16 6 16 6 18 4 1 23 28 24
13 13 12 13 13 12 10 9 8 6 6 5 6 7 7 8 8 8 4 4 10 10 7 11 13 10 3 1 2 2 2 2 4 3 3 2 17 14 8 13 7 19 26 27 24
14 14 13 13 13 13 12 11 9 8 7 6 5 6 7 7 3 2 2 8 11 12 10 11 10 8 2 1 3 2 2 6 3 5 6 4 10 4 21 3 16 31 31 28 25
13 14 13 13 12 12 12 12 11 10 9 8 7 6 6 4 4 3 4 5 14 11 13 13 10 5 2 1 3 2 5 10 4 11 4 1 4 7 13 7 29 31 32 31 27
13 13 13 13 12 11 11 11 11 10 10 10 8 7 6 2 1 1 3 5 11 12 11 11 11 5 1 2 3 3 3 8 12 18 7 5 4 3 16 12 30 30 30 29 27
13 13 13 13 11 11 11 11 11 10 10 10 10 7 5 1 4 4 7 5 4 10 10 10 6 5 2 2 2 3 7 9 5 7 1 2 3 5 14 25 32 31 30 29 27
12 13 13 12 11 9 9 10 11 12 10 10 10 10 4 1 5 5 4 2 2 2 7 11 7 5 2 4 6 16 4 9 9 3 3 9 5 3 13 29 33 33 31 30 29
13 13 14 13 11 8 9 11 13 12 9 9 12 9 1 8 5 6 5 4 1 1 5 3 10 4 2 4 3 3 4 3 6 6 1 3 5 5 15 29 29 28 32 31 31
13 13 14 14 12 7 9 12 14 10 7 9 7 5 2 1 5 7 10 5 2 4 14 9 7 1 1 3 4 6 3 5 4 6 2 6 4 10 18 31 28 29 28 32 31
13 13 13 13 11 6 9 14 11 6 3 7 3 2 2 6 7 2 5 8 1 4 6 5 3 2 4 4 3 2 4 3 4 3 7 7 8 6 3 14 27 28 30 30 33
14 14 13 12 9 5 9 8 8 3 12 5 8 7 9 2 5 1 7 9 5 2 3 2 4 4 2 5 4 4 3 5 3 5 4 2 1 5 11 4 14 19 26 33 37
15 15 13 11 8 4 8 6 8 10 9 8 5 11 8 5 2 3 7 5 4 3 4 5 1 4 4 3 2 5 7 2 1 4 2 4 3 2 8 4 5 10 28 32 33
15 15 12 10 5 1 5 8 14 14 2 6 4 6 2 5 5 4 9 5 2 2 3 5 3 5 3 2 4 4 5 5 3 5 3 3 4 5 4 9 14 16 24 36 36
15 14 12 8 1 1 2 10 17 5 5 6 3 1 2 2 2 6 7 5 3 4 5 2 3 3 3 4 5 3 7 9 10 5 2 3 2 4 9 6 9 22 21 34 38
15 14 11 5 6 2 3 10 9 3 4 2 2 1 2 3 1 3 9 7 5 3 6 6 2 3 4 7 8 5 11 6 2 3 2 4 2 3 11 13 15 24 22 32 40
14 15 12 9 8 5 3 9 2 5 1 5 1 1 2 1 2 2 4 4 1 3 1 6 3 5 6 2 9 11 7 7 5 3 2 7 5 5 11 22 14 20 24 31 37
14 14 14 9 5 6 4 4 5 3 3 5 2 1 1 3 2 2 4 2 3 3 3 4 3 1 6 8 6 5 7 3 2 0 5 4 4 8 17 14 21 22 26 30 36
15 13 13 7 9 6 2 4 2 2 4 4 3 2 3 5 4 3 3 2 1 4 1 1 5 8 4 5 7 4 6 6 6 4 2 1 5 6 9 25 27 34 31 28 34
14 12 7 6 12 7 3 3 6 4 3 3 3 6 5 4 2 4 4 2 2 4 6 1 5 1 5 5 10 6 5 5 5 2 1 4 6 5 2 8 16 24 28 29 32
15 7 3 9 12 10 4 5 4 4 3 2 3 2 2 5 4 4 0 1 2 2 3 2 3 3 2 5 1 5 7 2 2 4 4 4 5 5 11 9 15 13 23 25 25
10 1 5 14 13 4 3 6 5 7 3 4 3 3 0 3 2 1 1 2 1 3 2 3 2 6 1 2 7 2 2 1 4 4 5 2 6 5 11 15 19 30 42 41 39
4 2 10 17 4 1 3 5 2 3 1 2 4 2 3 2 2 3 3 4 1 1 1 0 4 3 6 7 2 4 6 6 4 4 2 3 6 7 6 8 27 20 26 35 38
10 0 6 14 3 2 4 3 4 2 3 4 4 3 2 4 1 1 2 2 2 3 3 3 1 3 5 4 4 4 3 2 3 3 5 5 6 6 5 5 17 19 21 28 33
5 1 2 10 1 5 3 4 3 3 4 4 5 4 3 2 1 2 2 3 5 3 9 3 2 5 4 6 1 5 5 3 4 3 4 5 6 8 5 2 7 17 22 24 25
2 2 0 2 2 3 4 2 3 3 2 3 1 4 7 4 1 3 2 4 2 5 2 4 5 4 5 3 6 8 4 7 1 3 4 5 4 5 7 5 5 12 19 24 29
3 3 3 4 3 3 5 5 4 3 6 4 5 4 5 6 8 8 5 3 2 3 3 3 1 2 1 3 4 1 8 3 4 4 1 4 2 3 8 9 11 8 15 20 25
2 4 4 3 2 2 4 3 3 5 6 11 11 6 5 6 8 3 5 4 2 1 1 2 3 2 5 6 4 4 0 3 1 4 3 2 3 5 6 12 10 10 13 13 14
Wind_Direction
23 16 13 11 9 5 359 352 345 335 321 308 304 304 301 291 285 281 281 251 183 180 179 168 155 156 155 130 155 118 62 94 122 132 102 138 128 163 140 138 109 130 155 156 157
21 17 13 10 10 9 6 2 356 350 340 325 319 320 320 316 296 279 245 212 183 175 168 163 155 158 145 126 162 105 118 134 43 44 64 325 149 161 129 139 90 120 146 156 156
17 15 12 11 12 13 13 10 6 5 355 343 336 332 330 334 332 88 341 208 176 185 187 166 155 162 155 172 198 95 143 135 82 352 23 10 159 130 142 144 160 148 154 162 162
16 13 12 11 11 11 10 13 10 10 7 354 346 340 334 343 140 105 40 172 184 177 180 176 170 137 84 196 204 84 107 122 84 268 269 295 272 139 162 166 165 157 160 163 168
13 10 10 8 5 6 7 7 8 11 8 3 352 343 348 322 115 130 49 134 181 193 189 178 172 142 131 296 163 178 151 164 175 216 225 248 248 72 205 159 165 162 166 168 172
4 4 5 4 359 357 359 1 359 352 347 349 352 351 336 335 136 117 84 103 173 203 203 184 199 207 326 300 215 125 125 117 159 132 82 311 256 187 190 165 166 168 172 177 176
356 356 357 357 353 346 347 348 344 340 338 341 339 341 303 155 154 166 145 124 66 257 213 199 166 128 317 315 2 142 118 91 44 74 114 347 313 185 158 171 166 176 178 186 185
351 349 349 348 347 337 329 332 330 325 320 329 337 341 352 161 182 218 228 226 331 331 172 107 202 283 248 317 53 185 112 106 21 61 353 48 268 193 218 167 168 178 181 192 195
349 346 343 342 343 334 316 326 326 315 314 330 335 351 103 57 279 257 245 219 78 93 119 118 137 231 296 90 31 4 101 86 125 39 89 178 289 1 193 175 171 180 182 193 199
348 344 341 339 342 328 320 333 331 324 315 326 343 360 80 332 360 311 214 209 135 124 139 136 131 64 46 70 209 141 131 67 127 138 91 66 313 335 346 207 177 182 188 191 202
347 345 341 336 339 333 9 360 352 340 323 276 288 276 281 334 337 3 158 157 184 153 112 102 96 208 135 200 160 124 108 120 155 180 134 112 162 315 341 307 197 186 188 197 208
342 344 341 334 331 0 38 53 37 334 308 322 280 262 265 270 275 191 173 151 161 171 112 35 252 210 176 178 153 116 123 131 33 111 87 171 276 248 313 286 298 228 194 197 201
334 337 340 330 322 29 32 20 347 335 252 302 295 289 290 178 212 191 176 172 129 107 147 139 222 103 157 178 127 155 177 190 152 141 48 117 310 224 222 278 293 267 211 203 201
332 328 335 331 289 277 95 353 341 337 57 291 285 336 191 201 302 197 195 167 32 170 140 198 273 202 161 219 155 202 192 144 140 137 193 224 221 212 226 255 267 257 215 196 201
329 323 327 314 272 256 304 343 345 2 56 281 239 237 158 145 317 181 179 172 150 155 97 249 243 215 195 217 164 236 110 116 88 61 92 191 130 240 156 240 226 237 213 198 199
321 317 314 296 253 230 296 339 1 40 1 338 236 66 73 210 244 132 149 152 156 153 48 239 238 188 209 14 177 130 83 54 52 54 288 179 190 200 188 224 232 211 211 197 199
314 309 301 277 205 188 292 343 44 120 317 310 317 352 156 335 5 93 116 75 110 51 339 314 246 60 127 77 20 88 78 23 349 294 234 152 164 245 198 190 215 204 198 201 196
317 305 290 247 212 205 319 54 139 240 272 313 22 28 65 357 43 36 81 65 100 116 139 220 317 168 177 169 172 158 141 160 208 194 247 272 231 245 213 200 202 197 195 193 194
323 309 278 197 188 190 156 88 203 204 256 334 12 56 340 10 92 70 27 151 204 174 171 176 277 219 199 151 149 209 205 155 104 354 101 226 280 289 144 142 164 170 172 184 189
331 314 204 176 170 165 92 223 221 215 323 81 123 180 59 321 47 59 312 288 281 250 207 188 299 251 245 113 327 156 167 114 23 163 241 272 270 232 212 186 173 158 171 185 194
332 347 152 152 151 170 165 228 249 255 242 155 201 155 151 151 100 31 214 280 244 312 243 145 125 295 357 181 186 124 165 71 130 164 166 288 268 220 206 180 183 179 183 194 202
336 69 162 161 98 51 174 202 241 248 265 158 131 131 150 141 129 176 208 227 222 288 295 29 146 269 245 292 231 197 193 153 137 242 243 155 275 313 194 191 187 206 201 207 205
336 304 164 185 159 239 272 277 264 258 252 167 167 177 57 132 146 233 266 261 340 321 231 213 357 7 355 343 42 34 5 91 103 85 200 148 266 360 34 158 184 183 192 198 200
326 37 139 205 232 155 190 269 250 258 262 184 143 117 111 102 310 201 269 305 318 275 333 155 130 148 206 238 344 325 343 348 149 135 180 219 310 346 349 286 156 169 180 181 180
301 285 141 218 246 201 187 264 237 258 234 134 49 191 149 156 191 229 221 304 334 337 92 105 190 170 175 271 86 254 353 357 71 99 180 284 314 324 316 324 312 171 172 179 188
311 340 348 280 280 208 177 221 218 280 195 189 167 180 149 153 184 206 171 204 221 315 76 344 170 283 66 98 268 336 30 344 15 19 5 315 7 323 11 74 70 129 171 181 192
274 299 303 277 285 158 215 192 241 344 245 190 168 130 155 216 175 145 190 131 150 235 8 86 90 28 169 299 37 336 291 56 224 359 310 336 239 289 49 65 66 121 169 168 182